User: anonymous   Login
Location: Caltech
(34.1382°N, 118.1253°W)
Time: 16:22:43
(UTC-07:00)
Language:

Cosmos 1937 Rocket - Orbit

View from above orbital plane
View from above orbital plane
View from above satellite
View from above satellite

Ground track
Ground track

The orbit data is extracted from the following two-line orbital elements,

1 19039U 88029B   17115.86395436 +.00000076 +00000-0 +33612-4 0  9990
2 19039 074.0502 035.7788 0024585 223.6041 195.6365 14.38360845523043
Epoch (UTC): 25 April 2017 20:44:05
Eccentricity: 0.0024585
inclination: 74.0502°
perigee height: 746 km
apogee height: 781 km
right ascension of ascending node: 35.7788°
argument of perigee: 223.6041°
revolutions per day: 14.38360845
mean anomaly at epoch: 195.6365°
orbit number at epoch: 52304

The dashed part of the orbit path shows where the satellite is in the earth's shadow,  

DLR